When you browse on this site, cookies collect data to enhance your experience and personalize the content and advertising you see.
Visit our Privacy Policy to learn more. By continuing to use the site, you agree to this use of cookies and data.
  • In United Kingdom
  • List of Countries
  • For 7 days
  • Water Temperature
  • Weather Map
  • Weather Widgets
  • user-avatar
    Login

    Hourly Weather Sharapanivka

    Today, 17 August, Saturday

    Time Temperature Precipitation Wind Pressure Humidity
    00:00 +12°C° 0 mm 3 mps 740 mmHg 78%
    01:00 +12°C° 0 mm 3 mps 740 mmHg 81%
    02:00 +12°C° 0 mm 3 mps 740 mmHg 87%
    03:00 +11°C° 0 mm 3 mps 740 mmHg 89%
    04:00 +11°C° 0 mm 3 mps 740 mmHg 91%
    05:00 +11°C° 0 mm 3 mps 740 mmHg 93%
    06:00 +13°C° 0 mm 3 mps 740 mmHg 83%
    07:00 +15°C° 0 mm 4 mps 740 mmHg 73%
    08:00 +17°C° 0 mm 5 mps 740 mmHg 64%
    09:00 +19°C° 0 mm 5 mps 740 mmHg 58%
    10:00 +20°C° 0 mm 5 mps 740 mmHg 52%
    11:00 +22°C° 0 mm 6 mps 740 mmHg 45%
    12:00 +22°C° 0 mm 6 mps 740 mmHg 45%
    13:00 +23°C° 0 mm 6 mps 740 mmHg 44%
    14:00 +23°C° 0 mm 6 mps 740 mmHg 43%
    15:00 +23°C° 0 mm 5 mps 740 mmHg 45%
    16:00 +23°C° 0 mm 5 mps 740 mmHg 47%
    17:00 +23°C° 0 mm 5 mps 740 mmHg 48%
    18:00 +21°C° 0 mm 4 mps 740 mmHg 55%
    19:00 +19°C° 0 mm 3 mps 740 mmHg 63%
    20:00 +17°C° 0 mm 3 mps 740 mmHg 70%
    21:00 +16°C° 0 mm 3 mps 740 mmHg 73%
    22:00 +16°C° 0 mm 2 mps 740 mmHg 77%
    23:00 +15°C° 0 mm 2 mps 740 mmHg 80%

    Tomorrow, 18 August, Sunday

    Time Temperature Precipitation Wind Pressure Humidity
    00:00 +15°C° 0 mm 2 mps 740 mmHg 83%
    01:00 +14°C° 0 mm 2 mps 740 mmHg 86%
    02:00 +14°C° 0 mm 2 mps 740 mmHg 89%
    03:00 +14°C° 0 mm 2 mps 740 mmHg 89%
    04:00 +13°C° 0 mm 2 mps 741 mmHg 90%
    05:00 +13°C° 0 mm 2 mps 741 mmHg 91%
    06:00 +14°C° 0 mm 3 mps 741 mmHg 81%
    07:00 +17°C° 0 mm 3 mps 741 mmHg 72%
    08:00 +19°C° 0 mm 3 mps 741 mmHg 62%
    09:00 +21°C° 0 mm 3 mps 741 mmHg 55%
    10:00 +23°C° 0 mm 4 mps 741 mmHg 49%
    11:00 +25°C° 0 mm 4 mps 742 mmHg 42%
    12:00 +26°C° 0 mm 4 mps 742 mmHg 40%
    13:00 +27°C° 0 mm 4 mps 741 mmHg 37%
    14:00 +27°C° 0 mm 4 mps 741 mmHg 35%
    15:00 +27°C° 0 mm 4 mps 741 mmHg 35%
    16:00 +27°C° 0 mm 3 mps 742 mmHg 36%
    17:00 +27°C° 0 mm 3 mps 742 mmHg 37%
    18:00 +24°C° 0 mm 3 mps 742 mmHg 44%
    19:00 +21°C° 0 mm 3 mps 742 mmHg 51%
    20:00 +19°C° 0 mm 2 mps 742 mmHg 58%
    21:00 +18°C° 0 mm 2 mps 743 mmHg 62%
    22:00 +17°C° 0 mm 2 mps 743 mmHg 66%
    23:00 +17°C° 0 mm 2 mps 743 mmHg 70%

    Day after tomorrow, 19 August, Monday

    Time Temperature Precipitation Wind Pressure Humidity
    00:00 +16°C° 0 mm 1 mps 743 mmHg 73%
    01:00 +16°C° 0 mm 1 mps 743 mmHg 76%
    02:00 +15°C° 0 mm 1 mps 743 mmHg 79%
    03:00 +15°C° 0 mm 1 mps 743 mmHg 80%
    04:00 +15°C° 0 mm 1 mps 743 mmHg 80%
    05:00 +15°C° 0 mm 1 mps 744 mmHg 81%
    06:00 +18°C° 0 mm 1 mps 744 mmHg 73%
    07:00 +20°C° 0 mm 1 mps 744 mmHg 64%
    08:00 +23°C° 0 mm 1 mps 745 mmHg 55%
    09:00 +24°C° 0 mm 1 mps 745 mmHg 50%
    10:00 +26°C° 0 mm 1 mps 745 mmHg 45%
    11:00 +28°C° 0 mm 1 mps 745 mmHg 39%
    12:00 +28°C° 0 mm 1 mps 745 mmHg 36%
    13:00 +29°C° 0 mm 2 mps 745 mmHg 33%
    14:00 +30°C° 0 mm 2 mps 744 mmHg 30%
    15:00 +29°C° 0 mm 2 mps 744 mmHg 30%
    16:00 +29°C° 0 mm 2 mps 744 mmHg 30%
    17:00 +29°C° 0 mm 2 mps 744 mmHg 31%
    18:00 +27°C° 0 mm 2 mps 744 mmHg 35%
    19:00 +25°C° 0 mm 2 mps 744 mmHg 40%
    20:00 +23°C° 0 mm 2 mps 744 mmHg 45%
    21:00 +21°C° 0 mm 2 mps 745 mmHg 47%
    22:00 +20°C° 0 mm 2 mps 745 mmHg 49%
    23:00 +19°C° 0 mm 2 mps 745 mmHg 51%

    20 August, Tuesday

    Time Temperature Precipitation Wind Pressure Humidity
    00:00 +19°C° 0 mm 2 mps 745 mmHg 54%
    01:00 +19°C° 0 mm 1 mps 745 mmHg 58%
    02:00 +19°C° 0 mm 1 mps 745 mmHg 61%
    03:00 +18°C° 0 mm 1 mps 745 mmHg 64%
    04:00 +18°C° 0 mm 1 mps 745 mmHg 67%
    05:00 +16°C° 0 mm 0 mps 745 mmHg 70%
    06:00 +20°C° 0 mm 1 mps 745 mmHg 64%
    07:00 +22°C° 0 mm 1 mps 745 mmHg 58%
    08:00 +25°C° 0 mm 1 mps 746 mmHg 51%
    09:00 +26°C° 0 mm 1 mps 746 mmHg 46%
    10:00 +28°C° 0 mm 1 mps 746 mmHg 40%
    11:00 +29°C° 0 mm 2 mps 746 mmHg 35%
    12:00 +30°C° 0 mm 2 mps 746 mmHg 32%
    13:00 +31°C° 0 mm 2 mps 745 mmHg 30%
    14:00 +32°C° 0 mm 2 mps 745 mmHg 28%
    15:00 +31°C° 0 mm 2 mps 745 mmHg 29%
    16:00 +31°C° 0 mm 3 mps 745 mmHg 29%
    17:00 +31°C° 0 mm 3 mps 745 mmHg 30%
    18:00 +29°C° 0 mm 3 mps 745 mmHg 36%
    19:00 +26°C° 0 mm 3 mps 745 mmHg 41%
    20:00 +24°C° 0 mm 3 mps 745 mmHg 46%
    21:00 +22°C° 0 mm 3 mps 745 mmHg 50%
    22:00 +21°C° 0 mm 3 mps 745 mmHg 54%
    23:00 +21°C° 0 mm 3 mps 745 mmHg 58%

    21 August, Wednesday

    Time Temperature Precipitation Wind Pressure Humidity
    00:00 +20°C° 0 mm 3 mps 745 mmHg 59%
    01:00 +20°C° 0 mm 2 mps 745 mmHg 61%
    02:00 +19°C° 0 mm 2 mps 744 mmHg 63%
    03:00 +19°C° 0 mm 2 mps 744 mmHg 66%
    04:00 +18°C° 0 mm 2 mps 744 mmHg 69%
    05:00 +18°C° 0 mm 2 mps 744 mmHg 72%
    06:00 +20°C° 0 mm 2 mps 744 mmHg 67%
    07:00 +23°C° 0 mm 2 mps 744 mmHg 63%
    08:00 +25°C° 0 mm 2 mps 744 mmHg 59%
    09:00 +27°C° 0 mm 2 mps 744 mmHg 52%
    10:00 +29°C° 0 mm 2 mps 744 mmHg 46%
    11:00 +30°C° 0 mm 2 mps 744 mmHg 40%
    12:00 +31°C° 0 mm 2 mps 744 mmHg 37%
    13:00 +32°C° 0 mm 2 mps 743 mmHg 34%
    14:00 +34°C° 0 mm 2 mps 743 mmHg 32%
    15:00 +33°C° 0 mm 3 mps 743 mmHg 32%
    16:00 +33°C° 0 mm 3 mps 743 mmHg 32%
    17:00 +33°C° 0 mm 3 mps 742 mmHg 32%
    18:00 +30°C° 0 mm 3 mps 743 mmHg 38%
    19:00 +28°C° 0 mm 3 mps 743 mmHg 44%
    20:00 +25°C° 0 mm 3 mps 743 mmHg 49%
    21:00 +24°C° 0 mm 3 mps 743 mmHg 55%
    22:00 +22°C° 0 mm 4 mps 744 mmHg 61%
    23:00 +22°C° 0 mm 5 mps 744 mmHg 67%

    22 August, Thursday

    Time Temperature Precipitation Wind Pressure Humidity
    00:00 +20°C° 0 mm 6 mps 744 mmHg 72%
    01:00 +19°C° 0 mm 6 mps 744 mmHg 76%
    02:00 +17°C° 0 mm 7 mps 744 mmHg 80%
    03:00 +16°C° 0 mm 7 mps 745 mmHg 81%
    04:00 +15°C° 0 mm 6 mps 745 mmHg 82%
    05:00 +15°C° 0 mm 6 mps 745 mmHg 84%
    06:00 +16°C° 0 mm 7 mps 745 mmHg 78%
    07:00 +17°C° 0 mm 7 mps 746 mmHg 73%
    08:00 +18°C° 0 mm 7 mps 746 mmHg 68%
    09:00 +20°C° 0 mm 7 mps 746 mmHg 64%
    10:00 +21°C° 0 mm 7 mps 746 mmHg 60%
    11:00 +23°C° 0 mm 8 mps 746 mmHg 56%
    12:00 +23°C° 0 mm 8 mps 746 mmHg 54%
    13:00 +24°C° 0 mm 8 mps 746 mmHg 52%
    14:00 +26°C° 0 mm 8 mps 746 mmHg 51%
    15:00 +24°C° 0 mm 8 mps 746 mmHg 53%
    16:00 +24°C° 0 mm 8 mps 746 mmHg 54%
    17:00 +23°C° 0 mm 8 mps 746 mmHg 56%
    18:00 +22°C° 0 mm 7 mps 746 mmHg 60%
    19:00 +21°C° 0 mm 6 mps 746 mmHg 64%
    20:00 +19°C° 0 mm 5 mps 746 mmHg 67%
    21:00 +19°C° 0 mm 5 mps 746 mmHg 68%
    22:00 +17°C° 0 mm 5 mps 746 mmHg 69%
    23:00 +17°C° 0 mm 6 mps 746 mmHg 70%
    Show more